FW1349 Weather Reports


time (UTC)temp
F
wind
direction
speed
knots
gust
knots
rain 1hr
in
rain 24hr
in
rain mn
in
humidity
%
barometer
mb
20240420095055 33 105 2.6 8.7 0.00 0.00 0.00 68 698.5
20240420094708 33 98 2.6 8.7 0.00 0.00 0.00 68 698.5
20240420094601 33 147 2.6 8.7 0.00 0.00 0.00 68 698.5
20240420094104 33 40 2.6 9.6 0.00 0.00 0.00 67 698.5
20240420093617 34 139 2.6 9.6 0.00 0.00 0.00 66 698.5
20240420093055 34 72 2.6 8.7 0.00 0.00 0.00 67 698.6
20240420092602 34 51 2.6 9.6 0.00 0.00 0.00 69 698.6
20240420092315 34 34 3.5 9.6 0.00 0.00 0.00 69 698.6
20240420091633 34 65 1.7 7.8 0.00 0.00 0.00 69 698.6
20240420091223 34 49 0.9 6.1 0.00 0.00 0.00 70 698.6
20240420091049 34 78 0.9 6.1 0.00 0.00 0.00 69 698.6
20240420090547 34 90 0.9 6.1 0.00 0.00 0.00 69 698.6
20240420090054 34 76 1.7 5.2 0.00 0.00 0.00 70 698.6
20240420085809 34 57 1.7 6.1 0.00 0.00 0.00 69 698.6
20240420085052 34 93 1.7 7.8 0.00 0.00 0.00 69 698.6
20240420084619 34 231 1.7 7.8 0.00 0.00 0.00 70 698.6
20240420084307 34 88 2.6 9.6 0.00 0.00 0.00 70 698.6
20240420083634 34 288 1.7 9.6 0.00 0.00 0.00 70 698.6
20240420083109 34 75 0.9 9.6 0.00 0.00 0.00 71 698.6
20240420082601 34 85 0.9 6.1 0.00 0.00 0.00 71 698.6
20240420082431 34 87 0.9 6.1 0.00 0.00 0.00 72 698.6
20240420081716 34 35 0.9 4.3 0.00 0.00 0.00 72 698.6
20240420081622 34 44 0.9 4.3 0.00 0.00 0.00 72 698.6
20240420081123 34 38 0.9 7.0 0.00 0.00 0.00 73 698.6
20240420080617 34 60 1.7 7.0 0.00 0.00 0.00 74 698.6
20240420080221 34 69 1.7 6.1 0.00 0.00 0.00 74 698.6
20240420075714 34 55 1.7 7.8 0.00 0.00 0.00 75 698.6
20240420075623 34 56 1.7 7.8 0.00 0.00 0.00 75 698.6
20240420075347 34 15 1.7 6.1 0.00 0.00 0.00 75 698.6
20240420074605 34 96 1.7 6.1 0.00 0.00 0.00 75 698.6
20240420074113 34 31 1.7 5.2 0.00 0.00 0.00 75 698.6
20240420073714 34 46 1.7 5.2 0.00 0.00 0.00 75 698.6
20240420073625 34 59 1.7 6.1 0.00 0.00 0.00 75 698.6
20240420073127 34 53 1.7 6.1 0.00 0.00 0.00 74 698.6
20240420072612 35 41 1.7 6.1 0.00 0.00 0.00 74 698.6
20240420072202 35 35 0.9 4.3 0.00 0.00 0.00 74 698.6
20240420071709 35 25 1.7 9.6 0.00 0.00 0.00 73 698.6
20240420071216 35 126 2.6 9.6 0.00 0.00 0.00 72 698.6
20240420071050 35 128 2.6 9.6 0.00 0.00 0.00 72 698.6
20240420070552 35 99 2.6 7.8 0.00 0.00 0.00 71 698.6
20240420070143 35 13 1.7 7.8 0.00 0.00 0.00 70 698.6
20240420065819 35 34 1.7 7.0 0.00 0.00 0.00 69 698.6
20240420065808 35 28 1.7 7.0 0.00 0.00 0.00 69 698.6
20240420065053 35 56 1.7 6.1 0.00 0.00 0.00 68 698.6
20240420064709 36 70 1.7 6.1 0.00 0.00 0.00 68 698.6
20240420064200 36 31 1.7 6.1 0.00 0.00 0.00 66 714.9
20240420063851 36 32 1.7 6.1 0.00 0.00 0.00 65 715.0
20240420063115 36 39 0.9 5.2 0.00 0.00 0.00 65 715.0
20240420062605 36 61 0.9 3.5 0.00 0.00 0.00 64 715.0
20240420062202 36 31 0.0 3.5 0.00 0.00 0.00 64 715.0
20240420061709 36 40 0.9 5.2 0.00 0.00 0.00 64 715.0
20240420061604 36 63 0.9 5.2 0.00 0.00 0.00 64 715.0
20240420061047 36 96 0.9 3.5 0.00 0.00 0.00 63 715.0
20240420060612 36 82 1.7 5.2 0.00 0.00 0.00 63 715.0
20240420060411 36 63 1.7 5.2 0.00 0.00 0.00 63 715.0
20240420055635 36 67 1.7 8.7 0.00 0.00 0.00 63 1005.6
20240420055220 36 355 1.7 9.6 0.00 0.00 0.00 63 1005.6
20240420055123 36 28 1.7 9.6 0.00 0.00 0.00 63 1005.6
20240420054619 36 61 0.9 5.2 0.00 0.00 0.00 64 1005.6
20240420054056 36 67 0.9 4.3 0.00 0.00 0.00 64 1005.6
20240420053732 36 57 0.9 8.7 0.00 0.00 0.00 64 1005.6
20240420053222 36 76 0.9 8.7 0.00 0.00 0.00 64 1005.6
20240420052941 36 25 0.9 5.2 0.00 0.00 0.00 65 1005.6
20240420052559 36 55 0.9 5.2 0.00 0.00 0.00 65 1005.6
20240420052324 36 63 0.9 8.7 0.00 0.00 0.00 65 1005.6
20240420051900 36 12 0.9 8.7 0.00 0.00 0.00 65 1005.6
20240420051112 36 30 0.0 3.5 0.00 0.00 0.00 66 1005.6
20240420050636 36 59 0.0 4.3 0.00 0.00 0.00 66 1005.6
20240420050104 35 61 0.0 4.3 0.00 0.00 0.00 66 1005.6
20240420045817 36 56 0.0 5.2 0.00 0.00 0.00 66 1005.6
20240420045100 36 69 0.0 5.2 0.00 0.00 0.00 66 1005.6
20240420044556 36 54 0.9 4.3 0.00 0.00 0.00 65 1005.6
20240420044140 36 72 0.9 4.3 0.00 0.00 0.00 65 1005.6
20240420043716 36 61 0.9 6.1 0.00 0.00 0.00 65 1005.6
20240420043606 36 26 0.9 6.1 0.00 0.00 0.00 65 1005.6
20240420043053 36 256 0.9 6.1 0.00 0.00 0.00 65 1005.6
20240420042639 36 65 0.9 3.5 0.00 0.00 0.00 65 1005.6
20240420042212 36 24 0.9 3.5 0.00 0.00 0.00 66 1005.6
20240420041700 36 40 0.0 3.5 0.00 0.00 0.00 66 1005.6
20240420041210 36 36 0.0 4.3 0.00 0.00 0.00 66 1005.6
20240420040209 36 337 0.9 4.3 0.00 0.00 0.00 65 1005.6
20240420040122 36 52 0.9 4.3 0.00 0.00 0.00 65 1005.6
20240420035612 36 9 0.9 4.3 0.00 0.00 0.00 65 1005.6
20240420035222 36 59 0.0 2.6 0.00 0.00 0.00 65 1005.6
20240420034704 36 65 0.9 6.1 0.00 0.00 0.00 65 1005.6
20240420034109 36 95 0.0 5.2 0.00 0.00 0.00 65 1005.6
20240420033610 36 26 0.0 8.7 0.00 0.00 0.00 65 1005.6
20240420033203 36 90 0.9 8.7 0.00 0.00 0.00 65 1005.6
20240420032649 36 72 0.9 5.2 0.00 0.00 0.00 65 1005.6
20240420032144 36 80 0.9 5.2 0.00 0.00 0.00 65 1005.6
20240420031635 36 96 0.9 8.7 0.00 0.00 0.00 66 1005.6
20240420031139 36 75 0.9 8.7 0.00 0.00 0.00 65 1005.6
20240420030548 36 92 0.9 6.1 0.00 0.00 0.00 66 1005.6
20240420030214 36 52 0.9 6.1 0.00 0.00 0.00 66 1005.6
20240420030114 36 49 0.9 6.1 0.00 0.00 0.00 66 1005.6
20240420025618 36 14 0.9 3.5 0.00 0.00 0.00 66 1005.6
20240420025057 36 84 0.9 6.1 0.00 0.00 0.00 67 1005.6
20240420024615 36 38 0.9 3.5 0.00 0.00 0.00 67 1005.6
20240420024100 36 80 0.9 3.5 0.00 0.00 0.00 66 1005.6
20240420023902 36 51 0.9 3.5 0.00 0.00 0.00 66 1005.6
20240420023205 36 60 0.9 8.7 0.00 0.00 0.00 66 1005.6
20240420023105 36 50 0.9 8.7 0.00 0.00 0.00 66 1005.6
20240420022559 36 68 0.9 8.7 0.00 0.00 0.00 66 1005.6
20240420022218 36 50 0.9 3.5 0.00 0.00 0.00 66 1005.6
20240420021705 36 63 0.9 4.3 0.00 0.00 0.00 65 1005.6
20240420021438 36 47 0.9 4.3 0.00 0.00 0.00 65 1005.6
20240420021146 36 57 0.9 6.1 0.00 0.00 0.00 65 1005.6
20240420020641 36 107 0.9 6.1 0.00 0.00 0.00 65 1005.6
20240420020339 36 61 0.9 6.1 0.00 0.00 0.00 64 1005.6
20240420015706 36 138 1.7 7.8 0.00 0.00 0.00 64 1005.6
20240420015416 37 78 0.9 4.3 0.00 0.00 0.00 64 1005.6
20240420014208 37 45 1.7 6.1 0.00 0.00 0.00 63 1005.6
20240420014049 37 99 0.9 6.1 0.00 0.00 0.00 62 1005.6
20240420013551 37 71 0.9 6.1 0.00 0.00 0.00 61 1005.6
20240420013138 37 68 0.9 6.1 0.00 0.00 0.00 61 1005.6
20240420012620 37 50 0.9 8.7 0.00 0.00 0.00 60 1005.6
20240420012341 37 54 0.9 5.2 0.00 0.00 0.00 59 1005.7
20240420011602 37 76 1.7 7.8 0.00 0.00 0.00 59 1005.7
20240420011145 37 86 1.7 7.8 0.00 0.00 0.00 59 1005.7
20240420011108 37 23 1.7 7.8 0.00 0.00 0.00 59 1005.7
20240420010823 37 22 1.7 11.3 0.00 0.00 0.00 58 1005.7
20240420010102 37 42 0.9 9.6 0.00 0.00 0.00 58 1005.7
20240420005708 37 46 1.7 9.6 0.00 0.00 0.00 57 1005.7
20240420005131 37 10 1.7 9.6 0.00 0.00 0.00 57 1005.7
20240420004558 38 80 1.7 8.7 0.00 0.00 0.00 57 1005.7
20240420004442 38 95 1.7 7.8 0.00 0.00 0.00 57 1005.7
20240420003725 38 88 2.6 8.7 0.00 0.00 0.00 56 1005.7
20240420003219 38 71 1.7 6.1 0.00 0.00 0.00 57 1005.7
20240420002646 38 61 2.6 10.4 0.00 0.00 0.00 56 1005.7
20240420002118 38 32 2.6 11.3 0.00 0.00 0.00 56 1005.7
20240420001845 38 327 2.6 10.4 0.00 0.00 0.00 55 1005.7
20240420001220 38 51 2.6 7.0 0.00 0.00 0.00 56 1005.7
20240420000721 38 46 1.7 7.0 0.00 0.00 0.00 55 1005.7
20240420000429 38 50 1.7 7.0 0.00 0.00 0.00 55 1005.7
20240420000122 38 28 1.7 7.0 0.00 0.00 0.00 55 1005.7
20240419235617 38 78 1.7 10.4 0.00 0.00 0.00 55 1005.7
20240419235206 38 71 1.7 10.4 0.00 0.00 0.00 55 1005.7
20240419234631 38 40 2.6 9.6 0.00 0.00 0.00 55 1005.7
20240419234141 38 67 2.6 9.6 0.00 0.00 0.00 55 1005.7
20240419233214 38 12 1.7 7.8 0.00 0.00 0.00 54 1005.7
20240419232721 38 13 0.9 7.8 0.00 0.00 0.00 54 1005.7
20240419232627 38 63 0.9 7.8 0.00 0.00 0.00 55 1005.7
20240419232306 38 79 0.9 5.2 0.00 0.00 0.00 55 1005.7
20240419232049 38 61 3.5 11.3 0.00 0.00 0.00 55 1005.7
20240419231115 38 250 3.5 13.0 0.00 0.00 0.00 54 1005.7
20240419230721 38 67 3.5 13.0 0.00 0.00 0.00 54 1005.7
20240419230619 38 55 3.5 12.2 0.00 0.00 0.00 55 1005.7
20240419230102 38 44 4.3 12.2 0.00 0.00 0.00 54 1005.7
20240419225822 38 49 3.5 12.2 0.00 0.00 0.00 53 1005.7
20240419225414 38 77 3.5 12.2 0.00 0.00 0.00 53 1005.7
20240419224608 38 57 3.5 11.3 0.00 0.00 0.00 53 1005.7
20240419224105 38 23 3.5 12.2 0.00 0.00 0.00 53 1005.7
20240419223607 38 25 2.6 12.2 0.00 0.00 0.00 53 747.9
20240419223059 38 351 2.6 9.6 0.00 0.00 0.00 53 748.0
20240419222623 38 79 3.5 11.3 0.00 0.00 0.00 52 747.9
20240419222203 38 35 3.5 12.2 0.00 0.00 0.00 52 747.9
20240419222057 38 78 3.5 12.2 0.00 0.00 0.00 52 748.0
20240419221823 38 98 2.6 12.2 0.00 0.00 0.00 52 748.0
20240419221047 38 37 2.6 9.6 0.00 0.00 0.00 53 748.0
20240419220809 38 62 3.5 10.4 0.00 0.00 0.00 53 748.0
20240419220124 38 19 2.6 10.4 0.00 0.00 0.00 53 748.0
20240419215644 38 37 1.7 9.6 0.00 0.00 0.00 53 748.0
20240419215555 38 76 1.7 9.6 0.00 0.00 0.00 53 748.0
20240419215322 39 14 2.6 8.7 0.00 0.00 0.00 53 748.0
20240419214907 39 87 2.6 8.7 0.00 0.00 0.00 52 748.0
20240419214141 39 38 1.7 9.6 0.00 0.00 0.00 52 748.0
20240419213837 39 74 1.7 7.8 0.00 0.00 0.00 52 748.0
20240419213154 38 53 1.7 13.0 0.00 0.00 0.00 52 748.0
20240419212610 38 72 1.7 13.0 0.00 0.00 0.00 52 748.0
20240419212130 38 69 3.5 11.3 0.00 0.00 0.00 51 748.0
20240419211642 38 57 3.5 11.3 0.00 0.00 0.00 51 748.0
20240419211328 38 31 2.6 11.3 0.00 0.00 0.00 51 748.0
20240419211319 38 76 3.5 11.3 0.00 0.00 0.00 51 748.0
20240419210605 38 65 2.6 16.5 0.00 0.00 0.00 51 748.0
20240419210145 38 28 3.5 16.5 0.00 0.00 0.00 51 748.0
20240419205724 38 350 3.5 13.0 0.00 0.00 0.00 51 748.0
20240419205614 38 42 3.5 12.2 0.00 0.00 0.00 51 748.0
20240419205106 39 36 2.6 11.3 0.00 0.00 0.00 52 748.0
20240419204615 39 23 2.6 11.3 0.00 0.00 0.00 51 748.0
20240419204351 39 10 2.6 13.9 0.00 0.00 0.00 51 748.0
20240419203657 39 135 2.6 13.9 0.00 0.00 0.00 50 748.0
20240419203216 39 129 1.7 8.7 0.00 0.00 0.00 52 748.0
20240419203137 39 53 1.7 8.7 0.00 0.00 0.00 53 748.0
20240419202638 38 59 0.9 9.6 0.00 0.00 0.00 52 748.0
20240419202107 38 58 1.7 11.3 0.00 0.00 0.00 54 747.9
20240419201631 38 81 3.5 14.8 0.00 0.00 0.00 53 747.9
20240419201154 38 55 3.5 14.8 0.00 0.00 0.00 52 747.9
20240419200200 38 56 2.6 13.9 0.00 0.00 0.00 53 747.9
20240419195705 38 55 2.6 13.9 0.00 0.00 0.00 54 747.9
20240419195547 38 84 2.6 7.8 0.00 0.00 0.00 54 747.9
20240419195047 38 54 3.5 8.7 0.00 0.00 0.00 53 747.9
20240419194705 38 82 3.5 10.4 0.00 0.00 0.00 53 747.9
20240419194218 38 86 3.5 11.3 0.00 0.00 0.00 52 747.9
20240419193710 38 101 3.5 11.3 0.00 0.00 0.00 51 747.9
20240419193624 38 43 4.3 11.3 0.00 0.00 0.00 51 747.9
20240419193122 38 54 4.3 9.6 0.00 0.00 0.00 51 747.9
20240419192720 38 112 4.3 16.5 0.00 0.00 0.00 50 747.9
20240419192634 38 36 3.5 16.5 0.00 0.00 0.00 51 747.9
20240419192134 38 29 4.3 16.5 0.00 0.00 0.00 51 747.9
20240419191701 38 103 4.3 14.8 0.00 0.00 0.00 51 747.9
20240419191326 38 108 4.3 13.0 0.00 0.00 0.00 51 747.9
20240419191312 38 132 4.3 13.0 0.00 0.00 0.00 51 747.9
20240419190647 38 46 5.2 13.0 0.00 0.00 0.00 51 747.9
20240419185713 38 69 3.5 16.5 0.00 0.00 0.00 52 747.9
20240419185220 38 178 2.6 16.5 0.00 0.00 0.00 52 747.9
20240419184704 38 75 3.5 13.0 0.00 0.00 0.00 52 747.9
20240419184223 38 82 4.3 13.0 0.00 0.00 0.00 52 747.9
20240419183711 38 38 5.2 17.4 0.00 0.00 0.00 51 747.9
20240419183215 38 24 3.5 14.8 0.00 0.00 0.00 51 747.9
20240419182715 38 67 3.5 11.3 0.00 0.00 0.00 50 747.9
20240419182623 38 97 3.5 11.3 0.00 0.00 0.00 50 747.9
20240419182331 38 51 3.5 13.9 0.00 0.00 0.00 50 748.0
20240419181839 38 61 2.6 13.9 0.00 0.00 0.00 50 748.0
20240419181055 39 49 2.6 11.3 0.00 0.00 0.00 49 748.0
20240419180721 38 80 4.3 12.2 0.00 0.00 0.00 49 747.9
20240419180629 38 41 4.3 12.2 0.00 0.00 0.00 51 748.0
20240419180122 38 61 5.2 14.8 0.00 0.00 0.00 50 747.9
20240419175559 38 63 3.5 14.8 0.00 0.00 0.00 49 748.0
20240419175109 39 13 2.6 8.7 0.00 0.00 0.00 50 748.0
20240419175103 39 44 2.6 8.7 0.00 0.00 0.00 50 748.0
20240419175059 39 13 1.7 8.7 0.00 0.00 0.00 50 748.0
20240419174122 38 34 2.6 23.5 0.00 0.00 0.00 51 748.0
20240419173614 38 82 3.5 23.5 0.00 0.00 0.00 50 747.9
20240419173053 38 331 4.3 15.6 0.00 0.00 0.00 51 747.9
20240419172617 38 114 4.3 16.5 0.00 0.00 0.00 51 748.0
20240419172213 39 22 3.5 16.5 0.00 0.00 0.00 50 748.0
20240419172106 39 280 3.5 16.5 0.00 0.00 0.00 50 748.0
20240419171824 40 70 1.7 7.8 0.00 0.00 0.00 50 748.0
20240419171130 40 62 2.6 18.2 0.00 0.00 0.00 50 748.0
20240419170729 40 28 3.5 19.1 0.00 0.00 0.00 48 748.0
20240419170141 40 59 3.5 19.1 0.00 0.00 0.00 49 748.0
20240419165717 40 319 3.5 13.9 0.00 0.00 0.00 51 748.0
20240419165645 40 0 3.5 16.5 0.00 0.00 0.00 51 748.0
20240419165128 38 26 6.1 16.5 0.00 0.00 0.00 51 748.0
20240419164849 38 49 5.2 14.8 0.00 0.00 0.00 49 747.9
20240419164159 39 44 4.3 14.8 0.00 0.00 0.00 52 748.0
20240419164119 39 26 3.5 14.8 0.00 0.00 0.00 52 748.0
20240419163616 38 107 2.6 12.2 0.00 0.00 0.00 53 748.0
20240419163146 38 82 2.6 12.2 0.00 0.00 0.00 56 748.0
20240419162656 38 0 2.6 10.4 0.00 0.00 0.00 56 748.0
20240419162606 38 84 2.6 10.4 0.00 0.00 0.00 57 748.0
20240419161657 38 88 2.6 13.0 0.00 0.00 0.00 62 747.9
20240419161618 38 64 2.6 13.0 0.00 0.00 0.00 61 747.9
20240419161333 37 63 2.6 12.2 0.00 0.00 0.00 62 747.9
20240419160651 37 75 2.6 12.2 0.00 0.00 0.00 62 747.9
20240419160206 38 19 1.7 8.7 0.00 0.00 0.00 63 747.9
20240419160127 38 88 1.7 8.7 0.00 0.00 0.00 63 747.9
20240419155624 38 16 2.6 11.3 0.00 0.00 0.00 64 747.9
20240419155219 37 79 3.5 11.3 0.00 0.00 0.00 63 747.9
20240419154824 37 342 3.5 13.0 0.00 0.00 0.00 63 747.9
20240419154809 37 351 3.5 13.0 0.00 0.00 0.00 63 747.9
20240419154312 37 90 3.5 13.0 0.00 0.00 0.00 63 747.9
20240419153606 37 64 3.5 11.3 0.00 0.00 0.00 63 747.9
20240419153110 37 23 3.5 11.3 0.00 0.00 0.00 62 747.9
20240419152718 37 28 2.6 11.3 0.00 0.00 0.00 63 747.9
20240419152147 37 69 2.6 12.2 0.00 0.00 0.00 61 747.9
20240419151722 37 16 3.5 14.8 0.00 0.00 0.00 61 747.9
20240419151638 37 106 3.5 14.8 0.00 0.00 0.00 60 747.9
20240419151309 37 51 3.5 14.8 0.00 0.00 0.00 60 747.9
20240419151300 37 52 3.5 14.8 0.00 0.00 0.00 60 747.9
20240419150546 37 38 3.5 12.2 0.00 0.00 0.00 59 747.9
20240419150117 37 92 2.6 12.2 0.00 0.00 0.00 61 747.9
20240419145719 37 70 2.6 11.3 0.00 0.00 0.00 63 747.9
20240419145637 37 46 2.6 11.3 0.00 0.00 0.00 64 747.9
20240419145138 37 0 2.6 12.2 0.00 0.00 0.00 64 747.9
20240419144654 37 53 2.6 9.6 0.00 0.00 0.00 66 747.9
20240419144602 37 336 2.6 9.6 0.00 0.00 0.00 66 747.9
20240419144105 37 80 2.6 11.3 0.00 0.00 0.00 64 747.9
20240419143643 37 56 2.6 11.3 0.00 0.00 0.00 64 747.9
20240419143445 37 12 3.5 13.0 0.00 0.00 0.00 63 747.9
20240419143051 37 350 3.5 13.0 0.00 0.00 0.00 63 747.9
20240419142549 37 216 1.7 9.6 0.00 0.00 0.00 65 747.9
20240419142049 37 0 1.7 8.7 0.00 0.00 0.00 65 747.9
20240419141648 37 19 1.7 6.1 0.00 0.00 0.00 66 747.9
20240419141209 37 271 2.6 13.0 0.00 0.00 0.00 66 747.9
20240419140941 37 61 2.6 13.0 0.00 0.00 0.00 66 747.9
20240419140154 37 82 3.5 12.2 0.00 0.00 0.00 66 747.9
20240419135655 38 113 1.7 6.1 0.00 0.00 0.00 66 747.9
20240419135556 38 9 0.0 1.7 0.00 0.00 0.00 66 747.9
20240419134834 38 72 0.9 6.1 0.00 0.00 0.00 67 747.9
20240419134113 38 24 1.7 6.1 0.00 0.00 0.00 66 747.9
20240419133634 38 346 1.7 7.8 0.00 0.00 0.00 67 747.9
20240419133443 38 53 2.6 10.4 0.00 0.00 0.00 66 747.9
20240419133128 38 54 1.7 10.4 0.00 0.00 0.00 66 747.9
20240419132157 37 98 2.6 12.2 0.00 0.00 0.00 66 747.9
20240419131618 37 5 2.6 12.2 0.00 0.00 0.00 67 747.9
20240419131340 37 82 2.6 13.9 0.00 0.00 0.00 68 747.9
20240419130933 37 79 2.6 13.9 0.00 0.00 0.00 69 747.9
20240419130153 36 80 1.7 9.6 0.00 0.00 0.00 70 747.9
20240419125630 36 20 0.9 9.6 0.00 0.00 0.00 71 747.9
20240419125110 36 90 0.9 9.6 0.00 0.00 0.00 71 747.9
20240419124926 36 167 0.9 9.6 0.00 0.00 0.00 71 747.8
20240419124210 36 26 0.9 4.3 0.00 0.00 0.00 72 747.8
20240419123723 35 113 0.0 4.3 0.00 0.00 0.00 72 747.8
20240419123645 35 9 0.0 4.3 0.00 0.00 0.00 72 747.8
20240419123146 35 74 0.9 6.1 0.00 0.00 0.00 72 747.8
20240419122654 35 30 0.9 6.1 0.00 0.00 0.00 73 747.8
20240419122406 35 338 0.9 6.1 0.00 0.00 0.00 73 747.8
20240419122057 35 273 0.9 6.1 0.00 0.00 0.00 73 747.8
20240419121546 35 327 0.0 2.6 0.00 0.00 0.00 74 747.8
20240419121441 35 355 0.0 1.7 0.00 0.00 0.00 74 747.8
20240419121113 35 104 0.0 1.7 0.00 0.00 0.00 74 747.8
20240419120613 34 5 0.0 1.7 0.00 0.00 0.00 74 747.8
20240419120140 34 312 0.0 1.7 0.00 0.00 0.00 74 747.8
20240419115629 34 72 0.0 3.5 0.00 0.00 0.00 75 747.8
20240419115206 34 345 0.0 4.3 0.00 0.00 0.00 75 747.8
20240419115106 34 346 0.0 4.3 0.00 0.00 0.00 75 747.8
20240419114605 34 71 0.0 1.7 0.00 0.00 0.00 74 747.8
20240419114220 34 71 0.0 1.7 0.00 0.00 0.00 75 747.8
20240419114115 34 311 0.0 1.7 0.00 0.00 0.00 75 747.8
20240419113825 34 303 0.0 1.7 0.00 0.00 0.00 74 747.8
20240419113103 34 44 0.0 2.6 0.00 0.00 0.00 74 747.8
20240419112708 34 44 0.0 2.6 0.00 0.00 0.00 74 747.8
20240419112121 34 306 0.0 1.7 0.00 0.00 0.00 74 747.8
20240419111939 34 217 0.0 1.7 0.00 0.00 0.00 74 747.8
20240419111205 34 144 0.0 0.0 0.00 0.00 0.00 73 747.8
20240419110609 34 144 0.0 0.0 0.00 0.00 0.00 73 747.8
20240419110158 34 149 0.0 0.9 0.00 0.00 0.00 73 747.8
20240419110106 34 157 0.0 0.9 0.00 0.00 0.00 73 747.8
20240419105827 34 111 0.0 1.7 0.00 0.00 0.00 72 747.8
20240419105130 35 355 0.0 3.5 0.00 0.00 0.00 72 747.8
20240419104615 35 290 0.0 3.5 0.00 0.00 0.00 71 747.8
20240419104111 35 252 0.0 0.9 0.00 0.00 0.00 71 747.8
20240419103609 35 252 0.0 0.9 0.00 0.00 0.00 71 747.8
20240419103134 35 236 0.0 0.0 0.00 0.00 0.00 71 747.8
20240419102552 35 236 0.0 0.9 0.00 0.00 0.00 70 747.8
20240419102141 35 99 0.0 0.0 0.00 0.00 0.00 70 747.8
20240419101604 35 99 0.0 0.0 0.00 0.00 0.00 70 747.8
20240419101322 35 99 0.0 0.9 0.00 0.00 0.00 69 747.8
20240419100631 35 99 0.0 1.7 0.00 0.00 0.00 69 747.8
20240419100135 35 98 0.0 1.7 0.00 0.00 0.00 69 747.8
20240419095618 35 40 0.0 1.7 0.00 0.00 0.00 69 747.8